Regional Weather Roundup
Issued by NWS

Home | Current Version | Previous Version | Graphics & Text | Print | Product List | Glossary On
Versions: 1 2 3 4 5 6 7 8 9 10 11 12 13 14 15 16 17 18 19 20 21 22 23 24 25 26 27 28 29 30 31 32 33 34 35 36 37 38 39 40 41 42 43 44 45 46 47 48 49 50
000
ASUS43 KOAX 201810
RWRNE

WEATHER ROUNDUP FOR NEBRASKA
NATIONAL WEATHER SERVICE OMAHA NE
1200 PM CST SAT JAN 20 2018

NOTES: SATELLITE DATA IS BEING USED TO AUGMENT CLOUD COVER ABOVE
       12000 FEET.
       "FAIR" INDICATES FEW OR NO CLOUDS BELOW 12,000 FEET WITH NO
       SIGNIFICANT WEATHER AND/OR OBSTRUCTIONS TO VISIBILITY.


NEZ001>004-019>022-054>056-201900-
NEBRASKA PANHANDLE

CITY           SKY/WX    TMP DP  RH WIND       PRES   REMARKS
SCOTTSBLUFF    CLOUDY    35  31  85 NE7       29.88F WCI  29
6HR MIN TEMP:  26; 6HR MAX TEMP:  35;

ALLIANCE       CLOUDY    31  30  96 N13       29.87S WCI  21
6HR MIN TEMP:  27; 6HR MAX TEMP:  31;

CHADRON        CLOUDY    33  32  96 NE3       29.92F
6HR MIN TEMP:  24; 6HR MAX TEMP:  33;

GORDON         CLOUDY    34  33  93 N9        29.90F WCI  27
6HR MIN TEMP:  24; 6HR MAX TEMP:  34;

KIMBALL        CLOUDY    34  29  81 N13       29.84F WCI  25
SIDNEY         CLOUDY    38  29  70 NE13      29.84F WCI  30
6HR MIN TEMP:  25; 6HR MAX TEMP:  39;

$$

NEZ057>060-069>072-079>082-201900-
SOUTHWEST NEBRASKA

CITY           SKY/WX    TMP DP  RH WIND       PRES   REMARKS
NORTH PLATTE   MOSUNNY   45  31  58 NE12      29.84F
6HR MIN TEMP:  28; 6HR MAX TEMP:  45;

IMPERIAL       MOSUNNY   44  30  57 NE13      29.81F
6HR MIN TEMP:  24; 6HR MAX TEMP:  44;

LEXINGTON      SUNNY     44  33  66 NE13      29.82F
MCCOOK         SUNNY     45  32  60 NE13      29.79F
6HR MIN TEMP:  23; 6HR MAX TEMP:  45;

OGALLALA       MOSUNNY   44  33  65 N9        29.84F
$$

NEZ005>010-023>029-035>040-094-201900-
NORTH CENTRAL NEBRASKA

CITY           SKY/WX    TMP DP  RH WIND       PRES   REMARKS
VALENTINE      CLOUDY    40  33  76 N8        29.91R WCI  34
6HR MIN TEMP:  25; 6HR MAX TEMP:  40;

AINSWORTH      CLOUDY    37  34  92 N9        29.89S WCI  30
BROKEN BOW     MOSUNNY   45  31  58 E8        29.84S
6HR MIN TEMP:  31; 6HR MAX TEMP:  45;

O`NEILL        CLOUDY    37  34  92 N7        29.88F WCI  31
ORD            PTSUNNY   47  31  53 NE10      29.83F
6HR MIN TEMP:  29; 6HR MAX TEMP:  47;

THEDFORD       CLOUDY    37  33  87 N6        29.87F WCI  32
$$

NEZ041-046>049-061>064-073>077-083>087-201900-
SOUTH CENTRAL NEBRASKA

CITY           SKY/WX    TMP DP  RH WIND       PRES   REMARKS
GRAND ISLAND   SUNNY     40  35  83 NE12      29.83F WCI  33
6HR MIN TEMP:  25; 6HR MAX TEMP:  40;

AURORA         SUNNY     42  34  71 E9        29.82F
HASTINGS       SUNNY     42  31  64 NE10      29.82F
6HR MIN TEMP:  26; 6HR MAX TEMP:  42;

HEBRON         CLOUDY    38  38  98 NW3       29.83S FOG
HOLDREGE       SUNNY     40  33  77 NE14      29.81S WCI  32
KEARNEY        SUNNY     41  34  76 NE12      29.82F
YORK           SUNNY     43  34  70 E9        29.84F
$$

NEZ011>018-030>034-042>045-201900-
NORTHEAST NEBRASKA

CITY           SKY/WX    TMP DP  RH WIND       PRES   REMARKS
NORFOLK        CLOUDY    47  32  56 NE7       29.84F
6HR MIN TEMP:  26; 6HR MAX TEMP:  47;

ALBION         CLOUDY    47  32  56 NE8       29.84F
BLAIR          SUNNY     43  32  65 E5        29.85F
FREMONT        SUNNY     43  32  64 E9        29.85F
TEKAMAH        MOSUNNY   46  32  58 NE6       29.86F
6HR MIN TEMP:  21; 6HR MAX TEMP:  46;

WAYNE          MOSUNNY   46  32  58 NE5       29.86F
$$

NEZ050>053-065>068-078-088>093-201900-
SOUTHEAST NEBRASKA

CITY           SKY/WX    TMP DP  RH WIND       PRES   REMARKS
LINCOLN        SUNNY     42  34  73 S7        29.87F
6HR MIN TEMP:  20; 6HR MAX TEMP:  43;

OMAHA EPPLEY   MOSUNNY   42  29  59 S3        29.87F
6HR MIN TEMP:  23; 6HR MAX TEMP:  42;

BEATRICE       CLOUDY    45  42  88 CALM      29.83F
FALLS CITY     CLOUDY    49  43  80 SE5       29.86F
6HR MIN TEMP:  29; 6HR MAX TEMP:  49;

NEBRASKA CITY  CLOUDY    40  38  91 CALM      29.86F
PLATTSMOUTH    CLOUDY    40  39  97 SW3       29.86F FOG
$$

NEZ044-045-051>053-067-201900-
OMAHA AREA

CITY           SKY/WX    TMP DP  RH WIND       PRES   REMARKS
OMAHA EPPLEY   MOSUNNY   42  29  59 S3        29.87F
6HR MIN TEMP:  23; 6HR MAX TEMP:  42;

BLAIR          SUNNY     43  32  65 E5        29.85F
FREMONT        SUNNY     43  32  64 E9        29.85F
MILLARD        SUNNY     44  31  61 S5        29.86F
OFFUTT AFB     SUNNY     41  31  68 SE6       29.86F
PLATTSMOUTH    CLOUDY    40  39  97 SW3       29.86F FOG
WAHOO          FAIR      43  30  59 E3        29.85F
$$




USA.gov is the U.S. government's official web portal to all federal, state and local government web resources and services.